Time,TemperatureF,DewpointF,PressureIn,WindDirection,WindDirectionDegrees,WindSpeedMPH,WindSpeedGustMPH,Humidity,HourlyPrecipIn,Conditions,Clouds,dailyrainin,SolarRadiationWatts/m^2,SoftwareType,DateUTC
2013-06-16 00:02:00,58.0,57.0,-100.00,South,185,1.0,2.0,96,0.00,,,0.00,0.000000,,2013-06-16 04:02:00,
2013-06-16 00:34:00,56.0,55.0,-100.00,ENE,73,1.0,2.0,97,0.00,,,0.00,0.000000,,2013-06-16 04:34:00,
2013-06-16 00:43:00,56.0,55.0,-100.00,ENE,73,1.0,2.0,97,0.00,,,0.00,0.000000,,2013-06-16 04:43:00,
2013-06-16 00:53:00,56.0,55.0,-100.00,ENE,73,1.0,2.0,97,0.00,,,0.00,0.000000,,2013-06-16 04:53:00,
2013-06-16 01:02:00,56.0,55.0,-100.00,ENE,73,1.0,2.0,97,0.00,,,0.00,0.000000,,2013-06-16 05:02:00,
2013-06-16 01:22:00,55.0,54.0,-100.00,WSW,238,0.0,2.0,98,0.00,,,0.00,0.000000,,2013-06-16 05:22:00,
2013-06-16 01:34:00,55.0,54.0,-100.00,WSW,238,0.0,2.0,98,0.00,,,0.00,0.000000,,2013-06-16 05:34:00,
2013-06-16 01:43:00,55.0,54.0,-100.00,WSW,238,0.0,2.0,98,0.00,,,0.00,0.000000,,2013-06-16 05:43:00,
2013-06-16 01:52:00,55.0,54.0,-100.00,WSW,238,0.0,2.0,98,0.00,,,0.00,0.000000,,2013-06-16 05:52:00,
2013-06-16 02:01:00,55.0,54.0,-100.00,WSW,238,0.0,2.0,98,0.00,,,0.00,0.000000,,2013-06-16 06:01:00,
2013-06-16 02:33:00,54.0,53.0,-100.00,NE,37,1.0,2.0,98,0.00,,,0.00,0.000000,,2013-06-16 06:33:00,
2013-06-16 02:43:00,54.0,53.0,-100.00,NE,37,1.0,2.0,98,0.00,,,0.00,0.000000,,2013-06-16 06:43:00,
2013-06-16 02:52:00,54.0,53.0,-100.00,NE,37,1.0,2.0,98,0.00,,,0.00,0.000000,,2013-06-16 06:52:00,
2013-06-16 03:01:00,54.0,53.0,-100.00,NE,37,1.0,2.0,98,0.00,,,0.00,0.000000,,2013-06-16 07:01:00,
2013-06-16 03:33:00,52.0,51.0,-100.00,East,97,1.0,2.0,98,0.00,,,0.00,0.000000,,2013-06-16 07:33:00,
2013-06-16 03:43:00,52.0,51.0,-100.00,East,97,1.0,2.0,98,0.00,,,0.00,0.000000,,2013-06-16 07:43:00,
2013-06-16 03:53:00,52.0,51.0,-100.00,East,97,1.0,2.0,98,0.00,,,0.00,0.000000,,2013-06-16 07:53:00,
2013-06-16 04:02:00,52.0,51.0,-100.00,East,97,1.0,2.0,98,0.00,,,0.00,0.000000,,2013-06-16 08:02:00,
2013-06-16 04:34:00,52.0,51.0,-100.00,SE,128,2.0,2.0,98,0.00,,,0.00,0.000000,,2013-06-16 08:34:00,
2013-06-16 04:43:00,52.0,51.0,-100.00,SE,128,2.0,2.0,98,0.00,,,0.00,0.000000,,2013-06-16 08:43:00,
2013-06-16 04:54:00,52.0,51.0,-100.00,SE,128,2.0,2.0,98,0.00,,,0.00,0.000000,,2013-06-16 08:54:00,
2013-06-16 05:02:00,52.0,51.0,-100.00,SE,128,2.0,2.0,98,0.00,,,0.00,0.000000,,2013-06-16 09:02:00,
2013-06-16 05:33:00,51.0,50.0,-100.00,ESE,104,1.0,3.0,98,0.00,,,0.00,0.000000,,2013-06-16 09:33:00,
2013-06-16 05:43:00,51.0,50.0,-100.00,ESE,104,1.0,3.0,98,0.00,,,0.00,0.000000,,2013-06-16 09:43:00,
2013-06-16 05:52:00,51.0,50.0,-100.00,ESE,104,1.0,3.0,98,0.00,,,0.00,0.000000,,2013-06-16 09:52:00,
2013-06-16 06:02:00,51.0,50.0,-100.00,ESE,104,1.0,3.0,98,0.00,,,0.00,0.000000,,2013-06-16 10:02:00,
2013-06-16 06:22:00,50.0,49.0,-100.00,East,81,1.0,2.0,97,0.00,,,0.00,0.000000,,2013-06-16 10:22:00,
2013-06-16 06:33:00,50.0,49.0,-100.00,East,81,1.0,2.0,97,0.00,,,0.00,0.000000,,2013-06-16 10:33:00,
2013-06-16 06:43:00,50.0,49.0,-100.00,East,81,1.0,2.0,97,0.00,,,0.00,0.000000,,2013-06-16 10:43:00,
2013-06-16 06:54:00,50.0,49.0,-100.00,East,81,1.0,2.0,97,0.00,,,0.00,0.000000,,2013-06-16 10:54:00,
2013-06-16 07:02:00,50.0,49.0,-100.00,East,81,1.0,2.0,97,0.00,,,0.00,0.000000,,2013-06-16 11:02:00,
2013-06-16 07:22:00,50.0,49.0,-100.00,ESE,116,1.0,2.0,97,0.00,,,0.00,16.000000,,2013-06-16 11:22:00,
2013-06-16 07:34:00,50.0,49.0,-100.00,ESE,116,1.0,2.0,97,0.00,,,0.00,16.000000,,2013-06-16 11:34:00,
2013-06-16 07:43:00,50.0,49.0,-100.00,ESE,116,1.0,2.0,97,0.00,,,0.00,16.000000,,2013-06-16 11:43:00,
2013-06-16 07:53:00,50.0,49.0,-100.00,ESE,116,1.0,2.0,97,0.00,,,0.00,16.000000,,2013-06-16 11:53:00,
2013-06-16 08:02:00,50.0,49.0,-100.00,ESE,116,1.0,2.0,97,0.00,,,0.00,16.000000,,2013-06-16 12:02:00,
2013-06-16 08:22:00,58.0,55.0,-100.00,SSE,148,1.0,2.0,90,0.00,,,0.00,132.000000,,2013-06-16 12:22:00,
2013-06-16 08:33:00,58.0,55.0,-100.00,SSE,148,1.0,2.0,90,0.00,,,0.00,132.000000,,2013-06-16 12:33:00,
2013-06-16 08:43:00,58.0,55.0,-100.00,SSE,148,1.0,2.0,90,0.00,,,0.00,132.000000,,2013-06-16 12:43:00,
2013-06-16 08:53:00,58.0,55.0,-100.00,SSE,148,1.0,2.0,90,0.00,,,0.00,132.000000,,2013-06-16 12:53:00,
2013-06-16 09:01:00,58.0,55.0,-100.00,SSE,148,1.0,2.0,90,0.00,,,0.00,132.000000,,2013-06-16 13:01:00,
2013-06-16 09:34:00,68.0,62.0,-100.00,SW,223,2.0,5.0,80,0.00,,,0.00,344.000000,,2013-06-16 13:34:00,
2013-06-16 09:43:00,68.0,62.0,-100.00,SW,223,2.0,5.0,80,0.00,,,0.00,344.000000,,2013-06-16 13:43:00,
2013-06-16 09:54:00,68.0,62.0,-100.00,SW,223,2.0,5.0,80,0.00,,,0.00,344.000000,,2013-06-16 13:54:00,
2013-06-16 10:02:00,68.0,62.0,-100.00,SW,223,2.0,5.0,80,0.00,,,0.00,344.000000,,2013-06-16 14:02:00,
2013-06-16 10:34:00,72.0,60.0,-100.00,WSW,237,3.0,6.0,66,0.00,,,0.00,271.000000,,2013-06-16 14:34:00,
2013-06-16 10:44:00,72.0,60.0,-100.00,WSW,237,3.0,6.0,66,0.00,,,0.00,271.000000,,2013-06-16 14:44:00,
2013-06-16 10:53:00,72.0,60.0,-100.00,WSW,237,3.0,6.0,66,0.00,,,0.00,271.000000,,2013-06-16 14:53:00,
2013-06-16 11:02:00,72.0,60.0,-100.00,WSW,237,3.0,6.0,66,0.00,,,0.00,271.000000,,2013-06-16 15:02:00,
2013-06-16 11:23:00,75.0,61.0,-100.00,SSW,207,3.0,7.0,61,0.00,,,0.00,155.000000,,2013-06-16 15:23:00,
2013-06-16 11:34:00,75.0,61.0,-100.00,SSW,207,3.0,7.0,61,0.00,,,0.00,155.000000,,2013-06-16 15:34:00,
2013-06-16 11:43:00,75.0,61.0,-100.00,SSW,207,3.0,7.0,61,0.00,,,0.00,155.000000,,2013-06-16 15:43:00,
2013-06-16 11:53:00,75.0,61.0,-100.00,SSW,207,3.0,7.0,61,0.00,,,0.00,155.000000,,2013-06-16 15:53:00,
2013-06-16 12:02:00,75.0,61.0,-100.00,SSW,207,3.0,7.0,61,0.00,,,0.00,155.000000,,2013-06-16 16:02:00,
2013-06-16 12:23:00,77.0,59.0,-100.00,South,182,3.0,7.0,54,0.00,,,0.00,272.000000,,2013-06-16 16:23:00,
2013-06-16 12:33:00,77.0,59.0,-100.00,South,182,3.0,7.0,54,0.00,,,0.00,272.000000,,2013-06-16 16:33:00,
2013-06-16 12:43:00,77.0,59.0,-100.00,South,182,3.0,7.0,54,0.00,,,0.00,272.000000,,2013-06-16 16:43:00,
2013-06-16 12:53:00,77.0,59.0,-100.00,South,182,3.0,7.0,54,0.00,,,0.00,272.000000,,2013-06-16 16:53:00,
2013-06-16 13:02:00,77.0,59.0,-100.00,South,182,3.0,7.0,54,0.00,,,0.00,272.000000,,2013-06-16 17:02:00,
2013-06-16 13:34:00,75.0,60.0,-100.00,East,89,2.0,10.0,60,0.00,,,0.00,308.000000,,2013-06-16 17:34:00,
2013-06-16 13:43:00,75.0,60.0,-100.00,East,89,2.0,10.0,60,0.00,,,0.00,308.000000,,2013-06-16 17:43:00,
2013-06-16 13:53:00,75.0,60.0,-100.00,East,89,2.0,10.0,60,0.00,,,0.00,308.000000,,2013-06-16 17:53:00,
2013-06-16 14:02:00,75.0,60.0,-100.00,East,89,2.0,10.0,60,0.00,,,0.00,308.000000,,2013-06-16 18:02:00,
2013-06-16 14:34:00,77.0,58.0,-100.00,East,84,3.0,6.0,52,0.00,,,0.00,574.000000,,2013-06-16 18:34:00,
2013-06-16 14:43:00,77.0,58.0,-100.00,East,84,3.0,6.0,52,0.00,,,0.00,574.000000,,2013-06-16 18:43:00,
2013-06-16 14:52:00,77.0,58.0,-100.00,East,84,3.0,6.0,52,0.00,,,0.00,574.000000,,2013-06-16 18:52:00,
2013-06-16 15:01:00,77.0,58.0,-100.00,East,84,3.0,6.0,52,0.00,,,0.00,574.000000,,2013-06-16 19:01:00,
2013-06-16 15:22:00,80.0,61.0,-100.00,SW,233,4.0,10.0,53,0.00,,,0.00,911.000000,,2013-06-16 19:22:00,
2013-06-16 15:34:00,80.0,61.0,-100.00,SW,233,4.0,10.0,53,0.00,,,0.00,911.000000,,2013-06-16 19:34:00,
2013-06-16 15:43:00,80.0,61.0,-100.00,SW,233,4.0,10.0,53,0.00,,,0.00,911.000000,,2013-06-16 19:43:00,
2013-06-16 15:54:00,80.0,61.0,-100.00,SW,233,4.0,10.0,53,0.00,,,0.00,911.000000,,2013-06-16 19:54:00,
2013-06-16 16:02:00,80.0,61.0,-100.00,SW,233,4.0,10.0,53,0.00,,,0.00,911.000000,,2013-06-16 20:02:00,
2013-06-16 16:33:00,80.0,60.0,-100.00,SW,234,4.0,10.0,51,0.00,,,0.00,1014.000000,,2013-06-16 20:33:00,
2013-06-16 16:43:00,80.0,60.0,-100.00,SW,234,4.0,10.0,51,0.00,,,0.00,1014.000000,,2013-06-16 20:43:00,
2013-06-16 16:53:00,80.0,60.0,-100.00,SW,234,4.0,10.0,51,0.00,,,0.00,1014.000000,,2013-06-16 20:53:00,
2013-06-16 17:02:00,80.0,60.0,-100.00,SW,234,4.0,10.0,51,0.00,,,0.00,1014.000000,,2013-06-16 21:02:00,
2013-06-16 17:22:00,75.0,60.0,-100.00,SW,221,5.0,12.0,59,0.00,,,0.00,551.000000,,2013-06-16 21:22:00,
2013-06-16 17:33:00,75.0,60.0,-100.00,SW,221,5.0,12.0,59,0.00,,,0.00,551.000000,,2013-06-16 21:33:00,
2013-06-16 17:42:00,75.0,60.0,-100.00,SW,221,5.0,12.0,59,0.00,,,0.00,551.000000,,2013-06-16 21:42:00,
2013-06-16 17:53:00,75.0,60.0,-100.00,SW,221,5.0,12.0,59,0.00,,,0.00,551.000000,,2013-06-16 21:53:00,
2013-06-16 18:01:00,75.0,60.0,-100.00,SW,221,5.0,12.0,59,0.00,,,0.00,551.000000,,2013-06-16 22:01:00,
2013-06-16 18:22:00,74.0,62.0,-100.00,SW,226,6.0,12.0,66,0.00,,,0.00,172.000000,,2013-06-16 22:22:00,
2013-06-16 18:32:00,74.0,62.0,-100.00,SW,226,6.0,12.0,66,0.00,,,0.00,172.000000,,2013-06-16 22:32:00,
2013-06-16 18:42:00,74.0,62.0,-100.00,SW,226,6.0,12.0,66,0.00,,,0.00,172.000000,,2013-06-16 22:42:00,
2013-06-16 18:52:00,74.0,62.0,-100.00,SW,226,6.0,12.0,66,0.00,,,0.00,172.000000,,2013-06-16 22:52:00,
2013-06-16 19:02:00,74.0,62.0,-100.00,SW,226,6.0,12.0,66,0.00,,,0.00,172.000000,,2013-06-16 23:02:00,
2013-06-16 19:22:00,72.0,62.0,-100.00,SW,221,5.0,14.0,72,0.00,,,0.00,119.000000,,2013-06-16 23:22:00,
2013-06-16 19:32:00,72.0,62.0,-100.00,SW,221,5.0,14.0,72,0.00,,,0.00,119.000000,,2013-06-16 23:32:00,
2013-06-16 19:42:00,72.0,62.0,-100.00,SW,221,5.0,14.0,72,0.00,,,0.00,119.000000,,2013-06-16 23:42:00,
2013-06-16 19:52:00,72.0,62.0,-100.00,SW,221,5.0,14.0,72,0.00,,,0.00,119.000000,,2013-06-16 23:52:00,
2013-06-16 20:02:00,72.0,62.0,-100.00,SW,221,5.0,14.0,72,0.00,,,0.00,119.000000,,2013-06-17 00:02:00,
2013-06-16 20:32:00,70.0,62.0,-100.00,SW,220,4.0,10.0,77,0.00,,,0.00,54.000000,,2013-06-17 00:32:00,
2013-06-16 20:43:00,70.0,62.0,-100.00,SW,220,4.0,10.0,77,0.00,,,0.00,54.000000,,2013-06-17 00:43:00,
2013-06-16 20:52:00,70.0,62.0,-100.00,SW,220,4.0,10.0,77,0.00,,,0.00,54.000000,,2013-06-17 00:52:00,
2013-06-16 21:02:00,70.0,62.0,-100.00,SW,220,4.0,10.0,77,0.00,,,0.00,54.000000,,2013-06-17 01:02:00,
2013-06-16 21:22:00,68.0,63.0,-100.00,WSW,238,2.0,6.0,83,0.00,,,0.00,9.000000,,2013-06-17 01:22:00,
2013-06-16 21:32:00,68.0,63.0,-100.00,WSW,238,2.0,6.0,83,0.00,,,0.00,9.000000,,2013-06-17 01:32:00,
2013-06-16 21:43:00,68.0,63.0,-100.00,WSW,238,2.0,6.0,83,0.00,,,0.00,9.000000,,2013-06-17 01:43:00,
2013-06-16 21:53:00,68.0,63.0,-100.00,WSW,238,2.0,6.0,83,0.00,,,0.00,9.000000,,2013-06-17 01:53:00,
2013-06-16 22:02:00,68.0,63.0,-100.00,WSW,238,2.0,6.0,83,0.00,,,0.00,9.000000,,2013-06-17 02:02:00,
2013-06-16 22:22:00,66.0,63.0,-100.00,WSW,246,2.0,3.0,90,0.00,,,0.00,0.000000,,2013-06-17 02:22:00,
2013-06-16 22:34:00,66.0,63.0,-100.00,WSW,246,2.0,3.0,90,0.00,,,0.00,0.000000,,2013-06-17 02:34:00,
2013-06-16 22:43:00,66.0,63.0,-100.00,WSW,246,2.0,3.0,90,0.00,,,0.00,0.000000,,2013-06-17 02:43:00,
2013-06-16 22:53:00,66.0,63.0,-100.00,WSW,246,2.0,3.0,90,0.00,,,0.00,0.000000,,2013-06-17 02:53:00,
2013-06-16 23:02:00,66.0,63.0,-100.00,WSW,246,2.0,3.0,90,0.00,,,0.00,0.000000,,2013-06-17 03:02:00,
2013-06-16 23:22:00,65.0,63.0,-100.00,WNW,288,2.0,4.0,93,0.00,,,0.00,1.000000,,2013-06-17 03:22:00,
2013-06-16 23:33:00,65.0,63.0,-100.00,WNW,288,2.0,4.0,93,0.00,,,0.00,1.000000,,2013-06-17 03:33:00,
2013-06-16 23:44:00,65.0,63.0,-100.00,WNW,288,2.0,4.0,93,0.00,,,0.00,1.000000,,2013-06-17 03:44:00,
2013-06-16 23:54:00,65.0,63.0,-100.00,WNW,288,2.0,4.0,93,0.00,,,0.00,1.000000,,2013-06-17 03:54:00,